When you browse on this site, cookies collect data to enhance your experience and personalize the content and advertising you see.
Visit our Privacy Policy to learn more. By continuing to use the site, you agree to this use of cookies and data.
  • In Sweden
  • List of Countries
  • For 7 days
  • Water Temperature
  • Weather Map
  • Weather Widgets
  • user-avatar
    Login

    Hourly Weather Wagadugu

    Today, 24 August, Saturday

    Time Temperature Precipitation Wind Pressure Humidity
    00:00 +26°C° 0.1 mm 2 mps 733 mmHg 84%
    01:00 +26°C° 0 mm 2 mps 732 mmHg 85%
    02:00 +26°C° 0 mm 2 mps 732 mmHg 86%
    03:00 +26°C° 0 mm 2 mps 732 mmHg 87%
    04:00 +26°C° 1.1 mm 3 mps 732 mmHg 87%
    05:00 +26°C° 1.1 mm 3 mps 732 mmHg 87%
    06:00 +25°C° 1.1 mm 4 mps 732 mmHg 87%
    07:00 +26°C° 0.6 mm 5 mps 733 mmHg 84%
    08:00 +27°C° 0.6 mm 5 mps 733 mmHg 81%
    09:00 +28°C° 0.6 mm 6 mps 733 mmHg 78%
    10:00 +29°C° 0.1 mm 6 mps 733 mmHg 73%
    11:00 +30°C° 0.1 mm 6 mps 733 mmHg 68%
    12:00 +32°C° 0.1 mm 6 mps 733 mmHg 64%
    13:00 +32°C° 0.1 mm 6 mps 732 mmHg 63%
    14:00 +33°C° 0.1 mm 6 mps 732 mmHg 62%
    15:00 +33°C° 0.1 mm 6 mps 731 mmHg 61%
    16:00 +32°C° 0.1 mm 6 mps 731 mmHg 65%
    17:00 +30°C° 0.1 mm 5 mps 731 mmHg 69%
    18:00 +29°C° 0.1 mm 5 mps 731 mmHg 73%
    19:00 +29°C° 0 mm 5 mps 732 mmHg 74%
    20:00 +28°C° 0 mm 5 mps 733 mmHg 75%
    21:00 +28°C° 0 mm 6 mps 733 mmHg 76%
    22:00 +27°C° 0.2 mm 5 mps 733 mmHg 77%
    23:00 +27°C° 0.2 mm 5 mps 734 mmHg 78%

    Tomorrow, 25 August, Sunday

    Time Temperature Precipitation Wind Pressure Humidity
    00:00 +26°C° 0.2 mm 5 mps 734 mmHg 79%
    01:00 +26°C° 0.1 mm 5 mps 733 mmHg 80%
    02:00 +25°C° 0.1 mm 5 mps 733 mmHg 81%
    03:00 +25°C° 0.1 mm 5 mps 733 mmHg 82%
    04:00 +25°C° 0 mm 5 mps 733 mmHg 83%
    05:00 +23°C° 0 mm 4 mps 733 mmHg 84%
    06:00 +23°C° 0 mm 4 mps 733 mmHg 86%
    07:00 +25°C° 0 mm 5 mps 734 mmHg 83%
    08:00 +26°C° 0 mm 5 mps 735 mmHg 80%
    09:00 +26°C° 0 mm 5 mps 735 mmHg 77%
    10:00 +27°C° 0.1 mm 5 mps 735 mmHg 74%
    11:00 +28°C° 0.1 mm 6 mps 735 mmHg 70%
    12:00 +30°C° 0.1 mm 6 mps 734 mmHg 66%
    13:00 +29°C° 0 mm 6 mps 734 mmHg 66%
    14:00 +29°C° 0 mm 6 mps 733 mmHg 66%
    15:00 +29°C° 0 mm 6 mps 732 mmHg 66%
    16:00 +29°C° 0 mm 6 mps 732 mmHg 69%
    17:00 +28°C° 0 mm 5 mps 732 mmHg 72%
    18:00 +27°C° 0 mm 5 mps 732 mmHg 75%
    19:00 +27°C° 0 mm 4 mps 732 mmHg 76%
    20:00 +26°C° 0 mm 3 mps 733 mmHg 78%
    21:00 +26°C° 0 mm 3 mps 734 mmHg 79%
    22:00 +26°C° 0.2 mm 3 mps 734 mmHg 81%
    23:00 +26°C° 0.2 mm 3 mps 734 mmHg 83%

    Day after tomorrow, 26 August, Monday

    Time Temperature Precipitation Wind Pressure Humidity
    00:00 +25°C° 0.2 mm 3 mps 734 mmHg 84%
    01:00 +25°C° 0.4 mm 4 mps 733 mmHg 85%
    02:00 +25°C° 0.4 mm 4 mps 733 mmHg 85%
    03:00 +25°C° 0.4 mm 4 mps 732 mmHg 86%
    04:00 +25°C° 0.5 mm 4 mps 732 mmHg 86%
    05:00 +25°C° 0.5 mm 4 mps 733 mmHg 85%
    06:00 +25°C° 0.5 mm 4 mps 733 mmHg 85%
    07:00 +26°C° 1.6 mm 5 mps 733 mmHg 83%
    08:00 +26°C° 1.6 mm 5 mps 734 mmHg 82%
    09:00 +26°C° 1.6 mm 6 mps 734 mmHg 80%
    10:00 +27°C° 1 mm 6 mps 734 mmHg 80%
    11:00 +27°C° 1 mm 6 mps 734 mmHg 79%
    12:00 +27°C° 1 mm 5 mps 733 mmHg 78%
    13:00 +28°C° 0.1 mm 5 mps 733 mmHg 74%
    14:00 +29°C° 0.1 mm 5 mps 732 mmHg 70%
    15:00 +30°C° 0.1 mm 4 mps 731 mmHg 66%
    16:00 +29°C° 0 mm 4 mps 731 mmHg 69%
    17:00 +29°C° 0 mm 3 mps 731 mmHg 71%
    18:00 +29°C° 0 mm 2 mps 731 mmHg 73%
    19:00 +28°C° 0 mm 2 mps 732 mmHg 75%
    20:00 +27°C° 0 mm 2 mps 732 mmHg 77%
    21:00 +27°C° 0 mm 2 mps 733 mmHg 79%
    22:00 +26°C° 1 mm 2 mps 733 mmHg 82%
    23:00 +26°C° 1 mm 2 mps 733 mmHg 84%

    27 August, Tuesday

    Time Temperature Precipitation Wind Pressure Humidity
    00:00 +26°C° 1 mm 2 mps 733 mmHg 87%
    01:00 +26°C° 2 mm 3 mps 733 mmHg 86%
    02:00 +26°C° 2 mm 3 mps 732 mmHg 86%
    03:00 +26°C° 2 mm 3 mps 732 mmHg 86%
    04:00 +25°C° 0.5 mm 3 mps 732 mmHg 87%
    05:00 +25°C° 0.5 mm 3 mps 733 mmHg 89%
    06:00 +25°C° 0.5 mm 3 mps 733 mmHg 90%
    07:00 +26°C° 0.3 mm 4 mps 733 mmHg 86%
    08:00 +27°C° 0.3 mm 4 mps 734 mmHg 81%
    09:00 +28°C° 0.3 mm 5 mps 734 mmHg 76%
    10:00 +29°C° 1.2 mm 5 mps 734 mmHg 73%
    11:00 +29°C° 1.2 mm 5 mps 733 mmHg 71%
    12:00 +30°C° 1.2 mm 5 mps 733 mmHg 68%
    13:00 +30°C° 0.5 mm 5 mps 733 mmHg 67%
    14:00 +32°C° 0.5 mm 4 mps 732 mmHg 67%
    15:00 +32°C° 0.5 mm 4 mps 731 mmHg 66%
    16:00 +30°C° 0.3 mm 3 mps 732 mmHg 70%
    17:00 +29°C° 0.3 mm 3 mps 732 mmHg 74%
    18:00 +28°C° 0.3 mm 3 mps 732 mmHg 78%
    19:00 +28°C° 0.5 mm 3 mps 732 mmHg 80%
    20:00 +27°C° 0.5 mm 3 mps 733 mmHg 82%
    21:00 +26°C° 0.5 mm 4 mps 734 mmHg 83%
    22:00 +26°C° 0 mm 4 mps 733 mmHg 84%
    23:00 +26°C° 0 mm 3 mps 733 mmHg 85%

    28 August, Wednesday

    Time Temperature Precipitation Wind Pressure Humidity
    00:00 +26°C° 0 mm 3 mps 733 mmHg 87%
    01:00 +25°C° 0 mm 3 mps 733 mmHg 87%
    02:00 +25°C° 0 mm 3 mps 733 mmHg 88%
    03:00 +25°C° 0 mm 4 mps 733 mmHg 88%
    04:00 +25°C° 0.6 mm 4 mps 733 mmHg 89%
    05:00 +25°C° 0.6 mm 4 mps 733 mmHg 89%
    06:00 +24°C° 0.6 mm 3 mps 733 mmHg 90%
    07:00 +25°C° 0.4 mm 4 mps 734 mmHg 86%
    08:00 +26°C° 0.4 mm 4 mps 734 mmHg 82%
    09:00 +27°C° 0.4 mm 4 mps 735 mmHg 78%
    10:00 +29°C° 0 mm 4 mps 734 mmHg 73%
    11:00 +30°C° 0 mm 4 mps 734 mmHg 68%
    12:00 +32°C° 0 mm 4 mps 733 mmHg 63%
    13:00 +32°C° 0 mm 4 mps 733 mmHg 63%
    14:00 +32°C° 0 mm 4 mps 732 mmHg 62%
    15:00 +33°C° 0 mm 3 mps 731 mmHg 62%
    16:00 +31°C° 1.4 mm 3 mps 731 mmHg 66%
    17:00 +30°C° 1.4 mm 3 mps 732 mmHg 70%
    18:00 +29°C° 1.4 mm 2 mps 732 mmHg 75%
    19:00 +28°C° 4 mm 2 mps 732 mmHg 79%
    20:00 +27°C° 4 mm 3 mps 733 mmHg 84%
    21:00 +26°C° 4 mm 3 mps 733 mmHg 88%
    22:00 +26°C° 0.4 mm 3 mps 733 mmHg 89%
    23:00 +26°C° 0.4 mm 3 mps 733 mmHg 89%

    29 August, Thursday

    Time Temperature Precipitation Wind Pressure Humidity
    00:00 +26°C° 0.4 mm 3 mps 733 mmHg 89%
    01:00 +25°C° 0.6 mm 3 mps 733 mmHg 89%
    02:00 +25°C° 0.6 mm 3 mps 733 mmHg 89%
    03:00 +25°C° 0.6 mm 3 mps 732 mmHg 89%
    04:00 +25°C° 0.3 mm 3 mps 733 mmHg 90%
    05:00 +25°C° 0.3 mm 2 mps 733 mmHg 90%
    06:00 +25°C° 0.3 mm 2 mps 733 mmHg 91%
    07:00 +25°C° 0.3 mm 3 mps 733 mmHg 89%
    08:00 +26°C° 0.3 mm 3 mps 734 mmHg 88%
    09:00 +26°C° 0.3 mm 4 mps 734 mmHg 86%
    10:00 +27°C° 1.1 mm 4 mps 734 mmHg 83%
    11:00 +27°C° 1.1 mm 4 mps 734 mmHg 79%
    12:00 +28°C° 1.1 mm 4 mps 734 mmHg 76%
    13:00 +28°C° 1.7 mm 4 mps 733 mmHg 77%
    14:00 +28°C° 1.7 mm 4 mps 732 mmHg 77%
    15:00 +28°C° 1.7 mm 3 mps 732 mmHg 78%
    16:00 +27°C° 1.6 mm 3 mps 732 mmHg 80%
    17:00 +27°C° 1.6 mm 3 mps 732 mmHg 83%
    18:00 +26°C° 1.6 mm 2 mps 732 mmHg 86%
    19:00 +26°C° 1.1 mm 2 mps 733 mmHg 86%
    20:00 +26°C° 1.1 mm 2 mps 733 mmHg 87%
    21:00 +26°C° 1.1 mm 2 mps 734 mmHg 88%
    22:00 +26°C° 0.2 mm 2 mps 734 mmHg 88%
    23:00 +25°C° 0.2 mm 2 mps 734 mmHg 88%
    Show more